Dirección General De Aeronáutica Civil

Dirección Meteorológica de Chile - Servicios Climáticos

Informe General de Control de Calidad de la Estación

Listado de niveles de control de calidad para algunos parámetros
Estación Mulchén, Negrete (370071)
Fecha de Revisión de los datos :

Elementos

Registros Niveles de Control Total
Nivel 0 Nivel 1 Nivel 2 Nivel 3 Errores Porcentaje
01 Temperatura del Aire Seco 117.641 0 . 118 0.10 % 0 . 0 . 118 0.10 %
02 Temperatura de Rocío 117.629 0 . 0 . 0 . 0 . 0 0.00 %
03 Humedad Relativa del Aire 117.668 0 . 0 . 0 . 0 . 0 0.00 %
04 Temperatura Máxima PM 1.463 0 . 0 . 0 . 0 . 0 0.00 %
05 Temperatura Mínima AM 1.481 0 . 0 . 0 . 0 . 0 0.00 %
06 Agua Caida, Acumulada 6 Horas 20.351 0 . 0 . 0 . 0 . 0 0.00 %
07 Presión Atm. a Nivel de Estación (QFE) 117.187 0 . 0 . 0 . 0 . 0 0.00 %
08 Presión Atm. a Nivel Medio del Mar (QFF) 34.783 0 . 0 . 0 . 0 . 0 0.00 %
09 Presión Atm. Estándar OACI (QNH) 34.783 0 . 0 . 0 . 0 . 0 0.00 %

Totales

562.986 . 0.0000 % . 0.0210 % . 0.0000 % . 0.0000 % 118 0.0210 %

Detalle de Errores Encontrados

Nivel Fecha del Dato Descripción Información Error Fecha Ingreso
1 2017-06-01 14:00:00 Ts debe ser mayor o igual a Td Ts=8.1 - Td=8.2 2023-11-20 01:22:00
1 2017-06-27 12:00:00 Ts debe ser mayor o igual a Td Ts=8.7 - Td=8.8 2023-11-20 01:22:00
1 2017-07-02 23:00:00 Ts debe ser mayor o igual a Td Ts=10.3 - Td=10.4 2023-11-20 01:23:00
1 2017-07-08 17:00:00 Ts debe ser mayor o igual a Td Ts=10.6 - Td=10.7 2023-11-20 01:23:00
1 2017-10-04 05:00:00 Ts debe ser mayor o igual a Td Ts=0.0 - Td=9.4 2023-11-20 01:24:00
1 2017-10-31 05:00:00 Ts debe ser mayor o igual a Td Ts=0.0 - Td=7.0 2023-11-20 01:24:00
1 2018-05-08 10:00:00 Ts debe ser mayor o igual a Td Ts=12.2 - Td=12.3 2023-11-20 01:26:00
1 2018-05-29 07:00:00 Ts debe ser mayor o igual a Td Ts=9.1 - Td=9.2 2023-11-20 01:27:00
1 2018-05-29 09:00:00 Ts debe ser mayor o igual a Td Ts=8.9 - Td=9.0 2023-11-20 01:27:00
1 2018-06-17 12:00:00 Ts debe ser mayor o igual a Td Ts=8.8 - Td=8.9 2023-11-20 01:27:00
1 2018-06-19 11:00:00 Ts debe ser mayor o igual a Td Ts=8.2 - Td=8.3 2023-11-20 01:27:00
1 2018-06-19 15:00:00 Ts debe ser mayor o igual a Td Ts=8.9 - Td=9.0 2023-11-20 01:27:00
1 2018-07-01 07:00:00 Ts debe ser mayor o igual a Td Ts=8.2 - Td=8.3 2023-11-20 01:27:00
1 2018-07-02 05:00:00 Ts debe ser mayor o igual a Td Ts=9.2 - Td=9.3 2023-11-20 01:27:00
1 2019-06-13 00:00:00 Ts debe ser mayor o igual a Td Ts=10.6 - Td=10.7 2023-11-20 01:32:00
1 2019-06-26 15:00:00 Ts debe ser mayor o igual a Td Ts=7.2 - Td=7.3 2023-11-20 01:32:00
1 2019-06-27 04:00:00 Ts debe ser mayor o igual a Td Ts=8.8 - Td=8.9 2023-11-20 01:32:00
1 2019-06-27 07:00:00 Ts debe ser mayor o igual a Td Ts=9.4 - Td=9.5 2023-11-20 01:32:00
1 2019-06-27 15:00:00 Ts debe ser mayor o igual a Td Ts=9.0 - Td=9.1 2023-11-20 01:32:00
1 2019-06-27 21:00:00 Ts debe ser mayor o igual a Td Ts=10.3 - Td=10.4 2023-11-20 01:32:00
1 2019-06-28 06:00:00 Ts debe ser mayor o igual a Td Ts=8.9 - Td=9.0 2023-11-20 01:32:00
1 2019-06-28 16:00:00 Ts debe ser mayor o igual a Td Ts=7.6 - Td=7.7 2023-11-20 01:32:00
1 2019-07-21 03:00:00 Ts debe ser mayor o igual a Td Ts=7.1 - Td=7.2 2023-11-20 01:33:00
1 2019-10-01 08:00:00 Ts debe ser mayor o igual a Td Ts=3.5 - Td=3.6 2023-11-08 10:02:00
1 2019-10-01 09:00:00 Ts debe ser mayor o igual a Td Ts=4.0 - Td=4.1 2023-11-08 10:02:00
1 2019-10-01 11:00:00 Ts debe ser mayor o igual a Td Ts=4.5 - Td=4.8 2023-11-08 10:02:00
1 2019-10-01 12:00:00 Ts debe ser mayor o igual a Td Ts=5.1 - Td=5.3 2023-11-08 10:02:00
1 2019-10-01 13:00:00 Ts debe ser mayor o igual a Td Ts=5.6 - Td=5.9 2023-11-08 10:02:00
1 2019-10-01 14:00:00 Ts debe ser mayor o igual a Td Ts=6.2 - Td=6.3 2023-11-08 10:02:00
1 2019-10-01 15:00:00 Ts debe ser mayor o igual a Td Ts=6.6 - Td=7.0 2023-11-08 10:02:00
1 2019-10-01 16:00:00 Ts debe ser mayor o igual a Td Ts=7.5 - Td=9.0 2023-11-08 10:02:00
1 2019-10-02 12:00:00 Ts debe ser mayor o igual a Td Ts=6.4 - Td=6.7 2023-11-08 10:02:00
1 2019-10-02 13:00:00 Ts debe ser mayor o igual a Td Ts=7.1 - Td=7.6 2023-11-08 10:02:00
1 2019-10-03 12:00:00 Ts debe ser mayor o igual a Td Ts=2.6 - Td=6.8 2023-11-08 10:02:00
1 2019-10-04 11:00:00 Ts debe ser mayor o igual a Td Ts=1.9 - Td=2.1 2023-11-08 10:02:00
1 2019-10-04 12:00:00 Ts debe ser mayor o igual a Td Ts=2.3 - Td=6.8 2023-11-08 10:02:00
1 2019-10-04 13:00:00 Ts debe ser mayor o igual a Td Ts=7.1 - Td=7.6 2023-11-08 10:02:00
1 2019-10-05 12:00:00 Ts debe ser mayor o igual a Td Ts=4.1 - Td=5.9 2023-11-08 10:02:00
1 2019-10-07 12:00:00 Ts debe ser mayor o igual a Td Ts=4.5 - Td=9.4 2023-11-08 10:02:00
1 2019-10-08 11:00:00 Ts debe ser mayor o igual a Td Ts=4.6 - Td=5.6 2023-11-08 10:02:00
1 2019-10-08 12:00:00 Ts debe ser mayor o igual a Td Ts=6.5 - Td=7.1 2023-11-08 10:02:00
1 2019-10-10 11:00:00 Ts debe ser mayor o igual a Td Ts=9.4 - Td=9.5 2023-11-08 10:02:00
1 2019-10-10 12:00:00 Ts debe ser mayor o igual a Td Ts=10.1 - Td=11.1 2023-11-08 10:02:00
1 2019-10-11 11:00:00 Ts debe ser mayor o igual a Td Ts=7.5 - Td=7.6 2023-11-08 10:02:00
1 2019-10-11 12:00:00 Ts debe ser mayor o igual a Td Ts=8.0 - Td=9.4 2023-11-08 10:02:00
1 2019-10-11 13:00:00 Ts debe ser mayor o igual a Td Ts=9.9 - Td=11.7 2023-11-08 10:02:00
1 2019-10-12 11:00:00 Ts debe ser mayor o igual a Td Ts=5.1 - Td=5.7 2023-11-08 10:02:00
1 2019-10-12 12:00:00 Ts debe ser mayor o igual a Td Ts=6.2 - Td=11.5 2023-11-08 10:02:00
1 2019-10-15 09:00:00 Ts debe ser mayor o igual a Td Ts=10.4 - Td=11.1 2023-11-08 10:02:00
1 2019-10-16 11:00:00 Ts debe ser mayor o igual a Td Ts=3.9 - Td=5.3 2023-11-08 10:02:00
1 2019-10-16 12:00:00 Ts debe ser mayor o igual a Td Ts=5.6 - Td=11.1 2023-11-08 10:02:00
1 2019-10-17 11:00:00 Ts debe ser mayor o igual a Td Ts=7.4 - Td=7.8 2023-11-08 10:02:00
1 2019-10-19 11:00:00 Ts debe ser mayor o igual a Td Ts=5.2 - Td=6.7 2023-11-08 10:02:00
1 2019-10-19 12:00:00 Ts debe ser mayor o igual a Td Ts=7.1 - Td=11.8 2023-11-08 10:02:00
1 2019-10-19 13:00:00 Ts debe ser mayor o igual a Td Ts=12.8 - Td=13.1 2023-11-08 10:02:00
1 2019-10-21 11:00:00 Ts debe ser mayor o igual a Td Ts=3.9 - Td=4.9 2023-11-08 10:02:00
1 2019-10-21 12:00:00 Ts debe ser mayor o igual a Td Ts=5.7 - Td=7.2 2023-11-08 10:02:00
1 2019-10-23 11:00:00 Ts debe ser mayor o igual a Td Ts=3.5 - Td=5.8 2023-11-08 10:02:00
1 2019-10-23 12:00:00 Ts debe ser mayor o igual a Td Ts=6.4 - Td=8.7 2023-11-08 10:02:00
1 2019-10-25 11:00:00 Ts debe ser mayor o igual a Td Ts=3.4 - Td=5.5 2023-11-08 10:02:00
1 2019-10-25 12:00:00 Ts debe ser mayor o igual a Td Ts=6.0 - Td=10.6 2023-11-08 10:02:00
1 2019-10-26 14:00:00 Ts debe ser mayor o igual a Td Ts=12.6 - Td=15.1 2023-11-08 10:02:00
1 2019-10-28 08:00:00 Ts debe ser mayor o igual a Td Ts=5.2 - Td=6.0 2023-11-08 10:02:00
1 2019-10-28 11:00:00 Ts debe ser mayor o igual a Td Ts=4.7 - Td=7.5 2023-11-08 10:02:00
1 2019-10-28 12:00:00 Ts debe ser mayor o igual a Td Ts=7.9 - Td=11.3 2023-11-08 10:02:00
1 2019-10-29 14:00:00 Ts debe ser mayor o igual a Td Ts=9.2 - Td=9.7 2023-11-08 10:02:00
1 2019-10-29 15:00:00 Ts debe ser mayor o igual a Td Ts=10.4 - Td=12.1 2023-11-08 10:02:00
1 2019-10-30 11:00:00 Ts debe ser mayor o igual a Td Ts=3.1 - Td=5.0 2023-11-08 10:02:00
1 2019-10-30 12:00:00 Ts debe ser mayor o igual a Td Ts=5.2 - Td=10.3 2023-11-08 10:02:00
1 2019-10-31 11:00:00 Ts debe ser mayor o igual a Td Ts=4.9 - Td=6.2 2023-11-08 10:02:00
1 2019-10-31 12:00:00 Ts debe ser mayor o igual a Td Ts=6.5 - Td=9.2 2023-11-08 10:02:00
1 2019-11-01 11:00:00 Ts debe ser mayor o igual a Td Ts=9.0 - Td=9.9 2023-11-08 10:03:00
1 2019-11-01 15:00:00 Ts debe ser mayor o igual a Td Ts=11.1 - Td=12.0 2023-11-08 10:03:00
1 2019-11-02 11:00:00 Ts debe ser mayor o igual a Td Ts=6.9 - Td=7.4 2023-11-08 10:03:00
1 2019-11-02 12:00:00 Ts debe ser mayor o igual a Td Ts=8.4 - Td=9.5 2023-11-08 10:03:00
1 2019-11-06 11:00:00 Ts debe ser mayor o igual a Td Ts=7.2 - Td=8.1 2023-11-08 10:03:00
1 2019-11-06 12:00:00 Ts debe ser mayor o igual a Td Ts=9.4 - Td=9.5 2023-11-08 10:03:00
1 2019-11-12 12:00:00 Ts debe ser mayor o igual a Td Ts=11.9 - Td=12.7 2023-11-08 10:03:00
1 2019-11-14 10:00:00 Ts debe ser mayor o igual a Td Ts=9.0 - Td=9.7 2023-11-08 10:03:00
1 2019-11-14 11:00:00 Ts debe ser mayor o igual a Td Ts=10.2 - Td=11.5 2023-11-08 10:03:00
1 2019-11-14 12:00:00 Ts debe ser mayor o igual a Td Ts=12.0 - Td=13.7 2023-11-08 10:03:00
1 2019-11-15 10:00:00 Ts debe ser mayor o igual a Td Ts=12.1 - Td=12.3 2023-11-08 10:03:00
1 2019-11-15 11:00:00 Ts debe ser mayor o igual a Td Ts=12.7 - Td=13.9 2023-11-08 10:03:00
1 2019-11-15 12:00:00 Ts debe ser mayor o igual a Td Ts=14.5 - Td=16.3 2023-11-08 10:03:00
1 2019-11-16 08:00:00 Ts debe ser mayor o igual a Td Ts=9.2 - Td=10.8 2023-11-08 10:03:00
1 2019-11-16 09:00:00 Ts debe ser mayor o igual a Td Ts=11.2 - Td=11.9 2023-11-08 10:03:00
1 2019-11-16 10:00:00 Ts debe ser mayor o igual a Td Ts=12.3 - Td=12.5 2023-11-08 10:03:00
1 2019-11-16 11:00:00 Ts debe ser mayor o igual a Td Ts=12.9 - Td=13.5 2023-11-08 10:03:00
1 2019-11-16 12:00:00 Ts debe ser mayor o igual a Td Ts=13.9 - Td=15.5 2023-11-08 10:03:00
1 2019-11-17 11:00:00 Ts debe ser mayor o igual a Td Ts=7.2 - Td=9.0 2023-11-08 10:03:00
1 2019-11-17 12:00:00 Ts debe ser mayor o igual a Td Ts=9.5 - Td=13.2 2023-11-08 10:03:00
1 2019-11-18 11:00:00 Ts debe ser mayor o igual a Td Ts=9.5 - Td=10.9 2023-11-08 10:03:00
1 2019-11-18 12:00:00 Ts debe ser mayor o igual a Td Ts=11.9 - Td=12.6 2023-11-08 10:03:00
1 2019-11-19 11:00:00 Ts debe ser mayor o igual a Td Ts=10.1 - Td=11.3 2023-11-08 10:03:00
1 2019-11-19 12:00:00 Ts debe ser mayor o igual a Td Ts=12.8 - Td=13.4 2023-11-08 10:03:00
1 2019-11-20 08:00:00 Ts debe ser mayor o igual a Td Ts=11.7 - Td=12.2 2023-11-08 10:03:00
1 2019-11-20 11:00:00 Ts debe ser mayor o igual a Td Ts=12.2 - Td=12.7 2023-11-08 10:03:00
1 2019-11-20 12:00:00 Ts debe ser mayor o igual a Td Ts=13.7 - Td=13.8 2023-11-08 10:03:00
1 2019-11-24 06:00:00 Ts debe ser mayor o igual a Td Ts=10.7 - Td=10.8 2023-11-08 10:03:00
1 2019-11-24 11:00:00 Ts debe ser mayor o igual a Td Ts=9.6 - Td=12.7 2023-11-08 10:03:00
1 2019-11-24 12:00:00 Ts debe ser mayor o igual a Td Ts=13.1 - Td=14.7 2023-11-08 10:03:00
1 2019-11-25 09:00:00 Ts debe ser mayor o igual a Td Ts=5.8 - Td=7.1 2023-11-08 10:03:00
1 2019-11-25 10:00:00 Ts debe ser mayor o igual a Td Ts=7.5 - Td=7.9 2023-11-08 10:03:00
1 2019-11-25 11:00:00 Ts debe ser mayor o igual a Td Ts=8.2 - Td=10.0 2023-11-08 10:03:00
1 2019-11-26 11:00:00 Ts debe ser mayor o igual a Td Ts=1.2 - Td=4.9 2023-11-08 10:03:00
1 2019-11-26 12:00:00 Ts debe ser mayor o igual a Td Ts=5.2 - Td=9.2 2023-11-08 10:03:00
1 2019-11-27 11:00:00 Ts debe ser mayor o igual a Td Ts=5.2 - Td=8.8 2023-11-08 10:03:00
1 2019-11-27 12:00:00 Ts debe ser mayor o igual a Td Ts=9.2 - Td=10.3 2023-11-08 10:03:00
1 2019-11-28 11:00:00 Ts debe ser mayor o igual a Td Ts=8.5 - Td=9.6 2023-11-08 10:03:00
1 2019-11-29 11:00:00 Ts debe ser mayor o igual a Td Ts=10.6 - Td=11.3 2023-11-08 10:03:00
1 2019-11-29 13:00:00 Ts debe ser mayor o igual a Td Ts=13.0 - Td=13.2 2023-11-08 10:03:00
1 2019-11-30 10:00:00 Ts debe ser mayor o igual a Td Ts=5.9 - Td=6.9 2023-11-08 10:03:00
1 2019-11-30 11:00:00 Ts debe ser mayor o igual a Td Ts=7.5 - Td=10.0 2023-11-08 10:03:00
1 2019-11-30 12:00:00 Ts debe ser mayor o igual a Td Ts=10.8 - Td=11.1 2023-11-08 10:03:00
1 2019-12-10 11:00:00 Ts debe ser mayor o igual a Td Ts=10.5 - Td=11.6 2023-11-08 10:03:00
1 2019-12-11 11:00:00 Ts debe ser mayor o igual a Td Ts=10.1 - Td=12.3 2023-11-08 10:03:00
1 2019-12-14 11:00:00 Ts debe ser mayor o igual a Td Ts=11.0 - Td=13.6 2023-11-08 10:03:00
1 2022-09-23 03:00:00 Ts debe ser mayor o igual a Td Ts=0.0 - Td=9.1 2022-09-23 03:32:00
Errores del Nivel 118
Informe generado el 23-07-2024 18:54
Requerimiento: RE6001